"Pseudo-MPEC" for P10LpbR

Created 2019 Jan 15 15:18:30 UT using Find_Orb

Click here for an explanation of pseudo-MPECs

 
 Astrometry: 
     P10LpbR  C2019 01 113/k7BnAstrometry*yru*L:xv$5(s\0=A%4?`M,Ixlgv@?n;IuVqF51
     P10LpbR  C2019 01 11$HC*6cjcIn\G`I6iu^_DY;*OE^6M;uEyfbDO28e3R45hX0L=/,2cF51
     P10LpbR  C2019 01 11PF1PQ8D'$\Fl45[VmF(redacted;dU4Pr%k[Svq^w]4w4Ao_WQEQF51
     P10LpbR |C2019 01 12AL8:Q]u^YmBVP0-k(4P9P[^[G9YZQuU#go.JEl)li:vyG:j*NtCX807
     P10LpbR |C2019 01 12EG]4pk^o^Ba'\]]wKgy18/mRtvXclick?#?`:iRS8juyq16QHhV6807
     P10LpbR |C2019 01 12l9DKX!QQbEunx38M3c^#:akqw9MRFl_x=qnnw0l1txe2!%sGPp`W807
     P10LpbR  C2019 01 12.17482 05 53 04.06 -13 00 09.4    ~1C5I 21.1 GVNEOCPI52
     P10LpbR  C2019 01 12.18074 05 53 03.64 -13 00 10.0    ~1C5I 19.9 GVNEOCPI52
     P10LpbR  C2019 01 12.18667 05 53 03.16 -13 00 10.8    ~1C5I 20.9 GVNEOCPI52
     P10LpbR KC2019 01 14UJ3Us6qg3[3x]-PH@,'9SXd95fT9CaUx1C-^Y$KF__yvlODf[K4]474
     P10LpbR KC2019 01 14SCAQ.d^mwrDU1CQXLOhereD.UJB8nJe%,QX)sd87_5?W3Ni0ZG\/474
     P10LpbR KC2019 01 14kBCxt[G@s8B2M;j:j3JJ4-3YwR)cH0_kb3GCZgqMd)%s;I`?stLa474
     P10LpbR KC2019 01 14_,;QnOR8c@c6^lkc@`3%`U,!c0for:,J:mfEaowSXqIUc:s)T,cY474
     P10LpbR KC2019 01 1566gP]-ODLR4xH7S1+Ln_22s3*8[@BQV2r`o%5m[;EJ9naGYmMN,:691
     P10LpbR KC2019 01 15d:9@2ZukIhMehQX\8Yo_-wFG]%N(w6FkOgq;!F-K54jWemW\bqC`691
     P10LpbR  C2019 01 15.18345 05 49 28.14 -13 01 37.6    ~1F5I 20.8 GVNEOCPI52
     P10LpbR KC2019 01 15t.e7G7SH]:ML(q)GtvX0_O-yFQvCIVq16\H]sexplanationU_1I691
     P10LpbR  C2019 01 15.18677 05 49 27.89 -13 01 36.8    ~1F5I 20.1 GVNEOCPI52
     P10LpbR  C2019 01 15.19008 05 49 27.67 -13 01 37.0    ~1F5I 20.8 GVNEOCPI52
     P10LpbR  C2019 01 15.19340 05 49 27.36 -13 01 37.2    ~1F5I 21.8 GVNEOCPI52

Station data:
(474) Mount John Observatory, Lake Tekapo  (S43.987388 E170.464960)  New
   Zealand.  Observers A. C. Gilmore, P. M. Kilmartin. Measurer P. M.
   Kilmartin. 1.0-m f/7.7 reflector + CCD.
(691) Steward Observatory, Kitt Peak - Spacewatch  (N31.962174 W111.600327)
   US/Arizona.  Observer J. V. Scotti. 0.9-m f/3 reflector + CCD.
(807) Cerro Tololo Observatory, La Serena  (S30.169136 W70.805900)  Chile.
   1.5-m Ritchey-Chrétien.
(F51) Pan-STARRS 1, Haleakala  (N20.707235 W156.255910)  US/Hawaii.
   Observers N. Primak, A. Schultz, S. Watters, J. Thiel, T. Goggia. Measurer
   PS1 Science Consortium. 1.8-m Ritchey-Chrétien + CCD.
(I52) Steward Observatory, Mt. Lemmon Station  (N32.442547 W110.788920)
   US/Arizona.  Observers B. M. Africano, E. J. Christensen, G. A. Farneth,
   D. C. Fuls, A. R. Gibbs, A. D. Grauer, H. Groeller, J. A. Johnson, R. A.
   Kowalski, S. M. Larson, G. J. Leonard, R. L. Seaman, F. C. Shelly. 1.0-m
   reflector + CCD.

Orbital elements:  P10LpbR
   Perihelion 2019 May 26.446218 +/- 2.18 TT = 10:42:33 (JD 2458629.946218)
Epoch 2019 Jan 15.0 TT = JDT 2458498.5   Earth MOID: 0.2136   Ju: 0.9970
M 329.24067791 +/- 1.1              (J2000 ecliptic)          AutoNEOCP
n   0.23400690 +/- 0.00518          Peri.  348.89495 +/- 0.14
a   2.60805616 +/- 0.0385           Node   202.12801 +/- 0.6
e   0.5359698 +/- 0.00818           Incl.   19.10852 +/- 0.15
P   4.21                   H 18.8   G  0.15   U  9.2  
q 1.21021677 +/- 0.00362    Q 4.00589555 +/- 0.08
From 20 observations 2019 Jan. 11-15; mean residual 0".25
Residuals in arcseconds: 
190111 F51  .07-  .08+    190112 I52  .36+  .31+    190115 691  .21+  .09-    
190111 F51  .13-  .14+    190112 I52  .03-  .02-    190115 I52  .14+  .39-    
190111 F51  .00   .10+    190114 474  .23-  .13+    190115 691  .13-  .03+    
190112 807  .02-  .29-    190114 474  .34+  .04+    190115 I52  .03+  .37+    
190112 807  .15+  .62-    190114 474  .56-  .05+    190115 I52  .34+  .12+    
190112 807  .02-  .21-    190114 474  .01+  .14-    190115 I52  .65-  .12-    
190112 I52  .11-  .45+    190115 691  .29+  .07+    

Ephemerides (geocentric):
Date (UTC) HH   RA              Dec         delta   r     elong  mag " sig PA
---- -- -- --  -------------   -----------  ------ ------ -----  --- ---- ---
2019 01 15 15  05 48 57.256   -13 01 20.95  0.9946 1.8285 135.1 21.1 .354 177
2019 01 15 16  05 48 54.371   -13 01 19.70  0.9945 1.8282 135.1 21.1 .378 177
2019 01 15 17  05 48 51.490   -13 01 18.39  0.9944 1.8279 135.1 21.1 .401 178
2019 01 15 18  05 48 48.610   -13 01 17.04  0.9943 1.8277 135.0 21.1 .426 178
2019 01 15 19  05 48 45.733   -13 01 15.63  0.9942 1.8274 135.0 21.1 .451 178
2019 01 15 20  05 48 42.858   -13 01 14.17  0.9941 1.8271 135.0 21.1 .476 178
2019 01 15 21  05 48 39.986   -13 01 12.66  0.9940 1.8268 135.0 21.1 .502 178
2019 01 15 22  05 48 37.117   -13 01 11.10  0.9940 1.8265 134.9 21.1 .528 178
2019 01 15 23  05 48 34.250   -13 01 09.49  0.9939 1.8262 134.9 21.1 .554 178
2019 01 16 00  05 48 31.385   -13 01 07.82  0.9938 1.8260 134.9 21.1 .581 179
2019 01 16 01  05 48 28.523   -13 01 06.11  0.9937 1.8257 134.8 21.1 .609 179
2019 01 16 02  05 48 25.663   -13 01 04.34  0.9936 1.8254 134.8 21.1 .637 179
2019 01 16 03  05 48 22.806   -13 01 02.52  0.9935 1.8251 134.8 21.1 .665 179
2019 01 16 04  05 48 19.952   -13 01 00.65  0.9934 1.8248 134.7 21.1 .694 179
2019 01 16 05  05 48 17.100   -13 00 58.73  0.9933 1.8246 134.7 21.1 .723 179
2019 01 16 06  05 48 14.250   -13 00 56.76  0.9933 1.8243 134.7 21.1 .753 179
2019 01 16 07  05 48 11.403   -13 00 54.73  0.9932 1.8240 134.6 21.1 .783 179
2019 01 16 08  05 48 08.559   -13 00 52.65  0.9931 1.8237 134.6 21.1 .814 179
2019 01 16 09  05 48 05.717   -13 00 50.53  0.9930 1.8234 134.6 21.1 .845 179
2019 01 16 10  05 48 02.878   -13 00 48.35  0.9929 1.8232 134.6 21.1 .877 179
2019 01 16 11  05 48 00.041   -13 00 46.12  0.9928 1.8229 134.5 21.1 .909   0
2019 01 16 12  05 47 57.207   -13 00 43.84  0.9927 1.8226 134.5 21.1 .941   0
2019 01 16 13  05 47 54.376   -13 00 41.50  0.9927 1.8223 134.5 21.1 .974   0
2019 01 16 14  05 47 51.547   -13 00 39.12  0.9926 1.8220 134.4 21.1 1.01   0
2019 01 16 15  05 47 48.720   -13 00 36.68  0.9925 1.8217 134.4 21.1 1.04   0
2019 01 16 16  05 47 45.897   -13 00 34.20  0.9924 1.8215 134.4 21.1 1.08   0
2019 01 16 17  05 47 43.076   -13 00 31.66  0.9923 1.8212 134.3 21.1 1.11   0
2019 01 16 18  05 47 40.257   -13 00 29.07  0.9922 1.8209 134.3 21.1 1.15   0
2019 01 16 19  05 47 37.442   -13 00 26.43  0.9921 1.8206 134.3 21.1 1.18   0
2019 01 16 20  05 47 34.629   -13 00 23.74  0.9921 1.8203 134.2 21.1 1.22   0
2019 01 16 21  05 47 31.818   -13 00 21.00  0.9920 1.8201 134.2 21.1 1.25   0
2019 01 16 22  05 47 29.010   -13 00 18.20  0.9919 1.8198 134.2 21.1 1.29   0
2019 01 16 23  05 47 26.205   -13 00 15.36  0.9918 1.8195 134.2 21.1 1.33   0
2019 01 17 00  05 47 23.403   -13 00 12.46  0.9917 1.8192 134.1 21.1 1.37   0
2019 01 17 01  05 47 20.603   -13 00 09.51  0.9917 1.8189 134.1 21.1 1.40   1
2019 01 17 02  05 47 17.806   -13 00 06.52  0.9916 1.8186 134.1 21.1 1.44   1
2019 01 17 03  05 47 15.011   -13 00 03.47  0.9915 1.8184 134.0 21.1 1.48   1
2019 01 17 04  05 47 12.220   -13 00 00.37  0.9914 1.8181 134.0 21.1 1.52   1
2019 01 17 05  05 47 09.431   -12 59 57.22  0.9913 1.8178 134.0 21.1 1.56   1
2019 01 17 06  05 47 06.644   -12 59 54.02  0.9912 1.8175 133.9 21.1 1.60   1
2019 01 17 07  05 47 03.861   -12 59 50.76  0.9912 1.8172 133.9 21.1 1.64   1
2019 01 17 08  05 47 01.080   -12 59 47.46  0.9911 1.8170 133.9 21.1 1.69   1
2019 01 17 09  05 46 58.302   -12 59 44.11  0.9910 1.8167 133.8 21.1 1.73   1
2019 01 17 10  05 46 55.526   -12 59 40.70  0.9909 1.8164 133.8 21.1 1.77   1
2019 01 17 11  05 46 52.754   -12 59 37.24  0.9908 1.8161 133.8 21.1 1.81   1
2019 01 17 12  05 46 49.984   -12 59 33.74  0.9908 1.8158 133.7 21.1 1.86   1
2019 01 17 13  05 46 47.217   -12 59 30.18  0.9907 1.8156 133.7 21.1 1.90   1
2019 01 17 14  05 46 44.452   -12 59 26.57  0.9906 1.8153 133.7 21.1 1.94   1